�������l�o���
Date,Time,MP-1(��Sv/h),MP-2(��Sv/h),MP-3(��Sv/h),MP-4(��Sv/h),MP-5(��Sv/h),MP-6(��Sv/h),MP-7(��Sv/h),MP-8(��Sv/h),����,����(m/s),���J
2018/03/31,00:00,0.869,1.460,0.904,1.707,1.160,0.483,0.852,0.819,���k��,2.5,��
2018/03/31,00:10,0.871,1.459,0.904,1.709,1.161,0.483,0.852,0.817,�k��,2.6,��
2018/03/31,00:20,0.870,1.461,0.903,1.706,1.160,0.483,0.853,0.818,���k��,2.2,��
2018/03/31,00:30,0.872,1.460,0.903,1.708,1.161,0.483,0.850,0.820,�k��,2.9,��
2018/03/31,00:40,0.867,1.460,0.904,1.704,1.161,0.482,0.850,0.819,�k��,3.4,��
2018/03/31,00:50,0.870,1.462,0.904,1.707,1.160,0.482,0.852,0.817,�k��,3.1,��
2018/03/31,01:00,0.868,1.459,0.905,1.703,1.163,0.484,0.851,0.818,�k�k��,3.2,��
2018/03/31,01:10,0.869,1.459,0.905,1.705,1.160,0.483,0.852,0.819,�k�k��,4.2,��
2018/03/31,01:20,0.869,1.458,0.903,1.704,1.161,0.482,0.851,0.818,�k�k��,4.0,��
2018/03/31,01:30,0.869,1.458,0.903,1.708,1.157,0.482,0.851,0.819,�k,4.7,��
2018/03/31,01:40,0.868,1.461,0.904,1.703,1.159,0.481,0.850,0.817,�k�k��,4.5,��
2018/03/31,01:50,0.870,1.460,0.903,1.705,1.161,0.483,0.851,0.819,�k�k��,4.3,��
2018/03/31,02:00,0.869,1.457,0.904,1.703,1.160,0.483,0.851,0.817,�k�k��,3.5,��
2018/03/31,02:10,0.871,1.460,0.903,1.703,1.159,0.484,0.851,0.818,�k�k��,4.2,��
2018/03/31,02:20,0.868,1.459,0.900,1.703,1.162,0.483,0.852,0.818,�k,4.2,��
2018/03/31,02:30,0.870,1.459,0.902,1.703,1.158,0.483,0.851,0.818,�k,4.7,��
2018/03/31,02:40,0.869,1.458,0.902,1.705,1.160,0.482,0.851,0.818,�k�k��,4.3,��
2018/03/31,02:50,0.870,1.460,0.903,1.705,1.156,0.482,0.851,0.818,�k�k��,4.2,��
2018/03/31,03:00,0.868,1.458,0.903,1.705,1.160,0.482,0.853,0.818,�k,4.8,��
2018/03/31,03:10,0.870,1.460,0.904,1.703,1.161,0.482,0.851,0.817,�k,5.4,��
2018/03/31,03:20,0.868,1.458,0.903,1.704,1.159,0.481,0.851,0.819,�k,6.1,��
2018/03/31,03:30,0.867,1.459,0.904,1.706,1.161,0.483,0.851,0.819,�k,5.4,��
2018/03/31,03:40,0.869,1.460,0.902,1.704,1.162,0.483,0.851,0.817,�k�k��,5.3,��
2018/03/31,03:50,0.871,1.457,0.901,1.705,1.160,0.481,0.851,0.818,�k�k��,4.8,��
2018/03/31,04:00,0.870,1.461,0.902,1.704,1.160,0.483,0.849,0.817,�k�k��,4.5,��
2018/03/31,04:10,0.868,1.458,0.901,1.704,1.162,0.483,0.850,0.816,�k�k��,4.5,��
2018/03/31,04:20,0.868,1.458,0.903,1.704,1.159,0.482,0.851,0.816,�k�k��,4.4,��
2018/03/31,04:30,0.868,1.459,0.904,1.707,1.159,0.482,0.853,0.816,�k�k��,4.7,��
2018/03/31,04:40,0.867,1.459,0.904,1.705,1.158,0.481,0.853,0.819,�k��,4.2,��
2018/03/31,04:50,0.871,1.461,0.904,1.704,1.160,0.483,0.852,0.818,�k��,3.8,��
2018/03/31,05:00,0.866,1.459,0.901,1.706,1.157,0.482,0.853,0.817,�k��,3.3,��
2018/03/31,05:10,0.868,1.457,0.903,1.703,1.159,0.483,0.851,0.816,�k�k��,3.4,��
2018/03/31,05:20,0.870,1.457,0.902,1.704,1.159,0.483,0.850,0.818,�k�k��,3.1,��
2018/03/31,05:30,0.867,1.459,0.902,1.705,1.159,0.483,0.851,0.817,�k�k��,3.5,��
2018/03/31,05:40,0.868,1.457,0.901,1.703,1.157,0.483,0.852,0.817,�k�k��,3.2,��
2018/03/31,05:50,0.867,1.457,0.901,1.702,1.158,0.481,0.850,0.815,�k��,3.5,��
2018/03/31,06:00,0.869,1.457,0.902,1.704,1.159,0.480,0.852,0.816,�k�k��,2.8,��
2018/03/31,06:10,0.869,1.456,0.903,1.702,1.157,0.482,0.851,0.817,�k�k��,2.2,��
2018/03/31,06:20,0.867,1.457,0.901,1.704,1.158,0.481,0.850,0.817,�k�k��,1.7,��
2018/03/31,06:30,0.867,1.457,0.900,1.704,1.159,0.482,0.852,0.818,�k�k��,2.2,��
2018/03/31,06:40,0.868,1.460,0.901,1.704,1.160,0.481,0.851,0.817,�k�k��,1.7,��
2018/03/31,06:50,0.871,1.457,0.903,1.705,1.158,0.482,0.852,0.818,�k��,2.0,��
2018/03/31,07:00,0.871,1.458,0.902,1.704,1.160,0.483,0.851,0.817,�k�k��,1.7,��
2018/03/31,07:10,0.870,1.459,0.901,1.708,1.159,0.482,0.854,0.820,�k,1.9,��
2018/03/31,07:20,0.870,1.459,0.905,1.710,1.158,0.483,0.852,0.818,�k�k��,2.0,��
2018/03/31,07:30,0.871,1.460,0.902,1.708,1.158,0.483,0.854,0.818,�k�k��,1.7,��
2018/03/31,07:40,0.871,1.459,0.902,1.705,1.160,0.482,0.853,0.819,�k�k��,1.5,��
2018/03/31,07:50,0.872,1.460,0.906,1.707,1.161,0.483,0.853,0.818,�k�k��,1.4,��
2018/03/31,08:00,0.869,1.460,0.904,1.705,1.162,0.484,0.853,0.819,��,0.9,��
2018/03/31,08:10,0.871,1.460,0.904,1.708,1.160,0.484,0.852,0.820,���k��,2.0,��
2018/03/31,08:20,0.870,1.461,0.905,1.708,1.159,0.484,0.854,0.818,���k��,1.7,��
2018/03/31,08:30,0.871,1.459,0.904,1.705,1.160,0.483,0.855,0.821,��,1.7,��
2018/03/31,08:40,0.872,1.457,0.903,1.706,1.159,0.483,0.854,0.821,���쓌,2.3,��
2018/03/31,08:50,0.870,1.459,0.904,1.706,1.161,0.483,0.853,0.819,���쓌,3.2,��
2018/03/31,09:00,0.869,1.459,0.902,1.707,1.160,0.482,0.851,0.819,���쓌,2.5,��
2018/03/31,09:10,0.873,1.459,0.905,1.709,1.163,0.483,0.852,0.819,�쓌,3.5,��
2018/03/31,09:20,0.872,1.457,0.905,1.710,1.160,0.483,0.850,0.819,�쓌,2.6,��
2018/03/31,09:30,0.872,1.457,0.903,1.708,1.163,0.481,0.851,0.819,��,2.3,��
2018/03/31,09:40,0.871,1.458,0.905,1.710,1.165,0.482,0.851,0.817,���쓌,2.5,��
2018/03/31,09:50,0.873,1.459,0.906,1.709,1.163,0.484,0.852,0.816,���쓌,3.2,��
2018/03/31,10:00,0.871,1.456,0.906,1.706,1.164,0.484,0.852,0.816,���쓌,3.1,��
2018/03/31,10:10,0.872,1.460,0.905,1.711,1.165,0.483,0.853,0.817,�쓌,3.1,��
2018/03/31,10:20,0.874,1.464,0.906,1.711,1.166,0.483,0.853,0.817,�쓌,3.1,��
2018/03/31,10:30,0.874,1.458,0.905,1.709,1.165,0.484,0.852,0.817,�쓌,3.5,��
2018/03/31,10:40,0.873,1.460,0.905,1.709,1.166,0.483,0.851,0.818,�쓌,2.9,��
2018/03/31,10:50,0.874,1.461,0.907,1.713,1.165,0.484,0.853,0.816,���쓌,4.5,��
2018/03/31,11:00,0.875,1.458,0.907,1.708,1.165,0.484,0.853,0.818,�쓌,3.9,��
2018/03/31,11:10,0.876,1.460,0.906,1.710,1.164,0.484,0.853,0.818,��쓌,4.2,��
2018/03/31,11:20,0.875,1.461,0.907,1.708,1.164,0.483,0.854,0.817,��쓌,4.5,��
2018/03/31,11:30,0.872,1.461,0.906,1.710,1.165,0.482,0.852,0.817,��쓌,4.1,��
2018/03/31,11:40,0.874,1.464,0.906,1.710,1.164,0.484,0.855,0.817,�쓌,4.4,��
2018/03/31,11:50,0.875,1.464,0.907,1.711,1.163,0.482,0.854,0.817,�쓌,5.3,��
2018/03/31,12:00,0.876,1.466,0.908,1.711,1.163,0.482,0.854,0.818,��쓌,5.0,��
2018/03/31,12:10,0.876,1.462,0.910,1.712,1.164,0.484,0.855,0.818,�쓌,5.9,��
2018/03/31,12:20,0.873,1.466,0.909,1.711,1.165,0.483,0.855,0.817,��쓌,5.4,��
2018/03/31,12:30,0.874,1.467,0.906,1.713,1.160,0.485,0.852,0.817,��쓌,6.0,��
2018/03/31,12:40,0.875,1.463,0.907,1.713,1.166,0.487,0.853,0.818,��쓌,5.2,��
2018/03/31,12:50,0.875,1.465,0.907,1.714,1.165,0.486,0.854,0.816,��쓌,5.4,��
2018/03/31,13:00,0.875,1.462,0.906,1.715,1.166,0.487,0.856,0.819,��쓌,6.9,��
2018/03/31,13:10,0.876,1.463,0.906,1.714,1.166,0.486,0.855,0.818,��쓌,6.3,��
2018/03/31,13:20,0.874,1.466,0.907,1.715,1.168,0.486,0.855,0.819,��쓌,6.8,��
2018/03/31,13:30,0.875,1.463,0.907,1.714,1.168,0.486,0.854,0.818,��쓌,8.0,��
2018/03/31,13:40,0.875,1.465,0.910,1.712,1.167,0.486,0.857,0.817,��쓌,8.3,��
2018/03/31,13:50,0.877,1.464,0.906,1.715,1.167,0.485,0.855,0.818,��쓌,8.0,��
2018/03/31,14:00,0.877,1.466,0.908,1.715,1.165,0.488,0.856,0.822,��쓌,8.0,��
2018/03/31,14:10,0.875,1.464,0.909,1.714,1.166,0.489,0.857,0.820,��쓌,8.3,��
2018/03/31,14:20,0.877,1.464,0.907,1.714,1.167,0.486,0.856,0.818,��쓌,8.9,��
2018/03/31,14:30,0.878,1.466,0.906,1.715,1.168,0.485,0.857,0.821,��쓌,7.9,��
2018/03/31,14:40,0.877,1.465,0.907,1.714,1.168,0.485,0.856,0.819,��쓌,8.6,��
2018/03/31,14:50,0.877,1.467,0.907,1.714,1.168,0.486,0.856,0.819,��쓌,9.5,��
2018/03/31,15:00,0.876,1.468,0.908,1.715,1.169,0.485,0.857,0.817,��쓌,10.0,��
2018/03/31,15:10,0.878,1.466,0.908,1.715,1.169,0.488,0.856,0.819,��쓌,7.9,��
2018/03/31,15:20,0.877,1.469,0.908,1.712,1.166,0.488,0.858,0.820,��쓌,8.2,��
2018/03/31,15:30,0.876,1.467,0.909,1.713,1.168,0.487,0.856,0.819,��쓌,10.2,��
2018/03/31,15:40,0.876,1.465,0.909,1.711,1.167,0.488,0.855,0.818,��쓌,10.5,��
2018/03/31,15:50,0.873,1.466,0.909,1.712,1.168,0.488,0.857,0.818,��쓌,10.7,��
2018/03/31,16:00,0.876,1.467,0.908,1.710,1.167,0.488,0.856,0.818,��쓌,10.6,��
2018/03/31,16:10,0.877,1.468,0.909,1.710,1.168,0.489,0.856,0.819,��쓌,9.7,��
2018/03/31,16:20,0.876,1.469,0.908,1.708,1.166,0.489,0.856,0.817,��쓌,9.5,��
2018/03/31,16:30,0.877,1.467,0.908,1.707,1.169,0.488,0.855,0.819,��쓌,9.9,��
2018/03/31,16:40,0.877,1.470,0.908,1.710,1.168,0.490,0.855,0.821,��쓌,11.3,��
2018/03/31,16:50,0.876,1.471,0.911,1.709,1.167,0.489,0.856,0.821,��쓌,11.7,��
2018/03/31,17:00,0.878,1.466,0.910,1.710,1.169,0.490,0.855,0.820,��쓌,10.8,��
2018/03/31,17:10,0.876,1.470,0.909,1.708,1.167,0.489,0.856,0.821,��쓌,10.0,��
2018/03/31,17:20,0.878,1.469,0.908,1.709,1.165,0.490,0.857,0.820,��쓌,11.4,��
2018/03/31,17:30,0.878,1.471,0.910,1.706,1.168,0.488,0.856,0.822,��쓌,10.7,��
2018/03/31,17:40,0.877,1.470,0.911,1.708,1.165,0.488,0.855,0.822,��쓌,10.5,��
2018/03/31,17:50,0.878,1.471,0.912,1.709,1.168,0.489,0.855,0.823,��쓌,11.9,��
2018/03/31,18:00,0.878,1.469,0.910,1.708,1.170,0.488,0.853,0.821,��쓌,10.3,��
2018/03/31,18:10,0.880,1.469,0.910,1.709,1.170,0.489,0.855,0.822,��,8.8,��
2018/03/31,18:20,0.879,1.471,0.911,1.709,1.170,0.489,0.857,0.820,��,8.7,��
2018/03/31,18:30,0.878,1.470,0.911,1.709,1.169,0.490,0.857,0.822,��,8.5,��
2018/03/31,18:40,0.879,1.469,0.913,1.710,1.171,0.487,0.858,0.821,��,8.1,��
2018/03/31,18:50,0.877,1.468,0.912,1.709,1.170,0.490,0.857,0.819,��,6.5,��
2018/03/31,19:00,0.877,1.469,0.912,1.709,1.169,0.489,0.859,0.821,��,6.3,��
2018/03/31,19:10,0.880,1.470,0.911,1.710,1.169,0.489,0.857,0.820,��,5.9,��
2018/03/31,19:20,0.877,1.470,0.912,1.710,1.168,0.489,0.857,0.821,��,6.3,��
2018/03/31,19:30,0.880,1.471,0.911,1.710,1.170,0.490,0.859,0.821,��쐼,5.1,��
2018/03/31,19:40,0.880,1.468,0.911,1.709,1.165,0.490,0.857,0.821,��,5.4,��
2018/03/31,19:50,0.878,1.469,0.911,1.708,1.168,0.489,0.857,0.822,��,5.8,��
2018/03/31,20:00,0.876,1.470,0.909,1.708,1.168,0.487,0.859,0.820,��,7.2,��
2018/03/31,20:10,0.877,1.469,0.909,1.710,1.168,0.488,0.858,0.818,��,6.2,��
2018/03/31,20:20,0.878,1.468,0.912,1.708,1.169,0.489,0.857,0.819,��,5.9,��
2018/03/31,20:30,0.877,1.468,0.909,1.706,1.168,0.488,0.856,0.819,��,5.8,��
2018/03/31,20:40,0.878,1.471,0.911,1.710,1.169,0.490,0.856,0.820,��,5.0,��
2018/03/31,20:50,0.879,1.469,0.912,1.707,1.167,0.486,0.858,0.820,��,4.7,��
2018/03/31,21:00,0.879,1.467,0.911,1.708,1.169,0.489,0.857,0.820,��,5.7,��
2018/03/31,21:10,0.877,1.467,0.912,1.708,1.170,0.487,0.857,0.818,��,6.4,��
2018/03/31,21:20,0.877,1.467,0.910,1.707,1.170,0.489,0.857,0.820,��,7.2,��
2018/03/31,21:30,0.880,1.468,0.913,1.708,1.169,0.488,0.858,0.819,��,8.0,��
2018/03/31,21:40,0.878,1.466,0.911,1.711,1.169,0.488,0.856,0.820,��,8.7,��
2018/03/31,21:50,0.878,1.468,0.911,1.709,1.168,0.488,0.856,0.822,��,7.7,��
2018/03/31,22:00,0.876,1.468,0.912,1.708,1.167,0.489,0.857,0.820,��,8.1,��
2018/03/31,22:10,0.876,1.466,0.912,1.706,1.169,0.490,0.857,0.822,��,8.3,��
2018/03/31,22:20,0.877,1.467,0.911,1.709,1.169,0.489,0.858,0.820,��,7.8,��
2018/03/31,22:30,0.878,1.469,0.913,1.711,1.169,0.489,0.857,0.822,��,8.2,��
2018/03/31,22:40,0.879,1.468,0.913,1.708,1.168,0.487,0.858,0.821,��,7.5,��
2018/03/31,22:50,0.880,1.467,0.911,1.710,1.169,0.489,0.857,0.821,��쐼,6.1,��
2018/03/31,23:00,0.878,1.468,0.913,1.711,1.169,0.488,0.856,0.822,��쐼,5.6,��
2018/03/31,23:10,0.877,1.466,0.913,1.712,1.169,0.487,0.856,0.821,��쐼,5.2,��
2018/03/31,23:20,0.879,1.467,0.914,1.709,1.166,0.489,0.856,0.821,��쐼,4.8,��
2018/03/31,23:30,0.880,1.468,0.913,1.711,1.167,0.490,0.856,0.822,�쐼,4.6,��
2018/03/31,23:40,0.880,1.466,0.912,1.712,1.167,0.490,0.858,0.822,��쐼,4.1,��
2018/03/31,23:50,0.880,1.466,0.912,1.708,1.170,0.488,0.857,0.820,��,4.0,��
